DLH078 EDDF-EDDL

Flight info

Callsign DLH078
Flight time 0h 33m
Altitude 22000
Route MARUN9S MARUN Y152 ARPEG Z850 ADEMI T854 DOMUX DOMUX1A
Aircraft A320/M-SDE2E3FGIJ1LORWXYZ/HB1

Departure

Time 2026-05-06 00:20
Airport Frankfurt Main Airport (EDDF)

Arrival

Time 2026-05-06 00:53
Airport Düsseldorf Airport (EDDL)
Time Latitude Longitude Altitude Speed Heading
2026-05-06 00:05 50.03652 8.53945 342 ft 0 kts 160°
2026-05-06 00:16 50.03634 8.53956 352 ft 9 kts 160°
2026-05-06 00:16 50.03577 8.53948 340 ft 8 kts 223°
2026-05-06 00:17 50.03551 8.53871 339 ft 7 kts 247°
2026-05-06 00:17 50.03534 8.53803 337 ft 6 kts 249°
2026-05-06 00:17 50.03524 8.53760 339 ft 3 kts 250°
2026-05-06 00:17 50.03500 8.53657 336 ft 21 kts 250°
2026-05-06 00:18 50.03469 8.53521 336 ft 13 kts 250°
2026-05-06 00:18 50.03419 8.53318 334 ft 25 kts 248°
2026-05-06 00:18 50.03375 8.53154 334 ft 17 kts 247°
2026-05-06 00:18 50.03336 8.52976 335 ft 18 kts 252°
2026-05-06 00:19 50.03294 8.52788 332 ft 19 kts 250°
2026-05-06 00:19 50.03231 8.52625 333 ft 14 kts 211°
2026-05-06 00:19 50.03128 8.52597 335 ft 19 kts 179°
2026-05-06 00:19 50.02773 8.52601 335 ft 86 kts 180°
2026-05-06 00:20 50.01984 8.52609 335 ft 140 kts 180°
2026-05-06 00:20 50.00900 8.52616 663 ft 161 kts 179°
2026-05-06 00:20 49.99744 8.52634 1244 ft 174 kts 181°
2026-05-06 00:20 49.98466 8.52578 1702 ft 192 kts 194°
2026-05-06 00:21 49.97246 8.51585 2167 ft 207 kts 224°
2026-05-06 00:21 49.96205 8.49993 3019 ft 211 kts 226°
2026-05-06 00:21 49.95143 8.48390 3901 ft 214 kts 227°
2026-05-06 00:21 49.94063 8.46771 4780 ft 218 kts 225°
2026-05-06 00:22 49.92959 8.45123 5599 ft 226 kts 226°
2026-05-06 00:22 49.91771 8.43345 6054 ft 248 kts 225°
2026-05-06 00:22 49.90503 8.41447 6783 ft 257 kts 225°
2026-05-06 00:22 49.89205 8.39505 7651 ft 262 kts 225°
2026-05-06 00:23 49.87987 8.37397 8553 ft 264 kts 239°
2026-05-06 00:23 49.87396 8.34710 9426 ft 269 kts 264°
2026-05-06 00:23 49.87643 8.31810 10135 ft 283 kts 288°
2026-05-06 00:23 49.88647 8.29015 10433 ft 310 kts 299°
2026-05-06 00:24 49.89875 8.26119 10684 ft 334 kts 304°
2026-05-06 00:24 49.91565 8.23442 10880 ft 362 kts 319°
2026-05-06 00:24 49.93796 8.21363 11009 ft 388 kts 334°
2026-05-06 00:24 49.96458 8.20223 11359 ft 406 kts 351°
2026-05-06 00:25 49.99303 8.20260 11924 ft 415 kts
2026-05-06 00:25 50.02087 8.21566 12508 ft 422 kts 22°
2026-05-06 00:25 50.04785 8.23413 13139 ft 426 kts 22°
2026-05-06 00:25 50.07498 8.25311 13739 ft 430 kts 23°
2026-05-06 00:26 50.10233 8.27243 14261 ft 433 kts 23°
2026-05-06 00:26 50.12992 8.29192 14801 ft 437 kts 23°
2026-05-06 00:26 50.15768 8.31147 15345 ft 439 kts 23°
2026-05-06 00:26 50.18567 8.33111 15867 ft 443 kts 23°
2026-05-06 00:27 50.21387 8.35082 16365 ft 446 kts 23°
2026-05-06 00:27 50.24194 8.37049 16856 ft 449 kts 23°
2026-05-06 00:27 50.27055 8.39057 17349 ft 453 kts 23°
2026-05-06 00:27 50.29968 8.40980 17821 ft 456 kts 19°
2026-05-06 00:28 50.32970 8.42630 18253 ft 459 kts 18°
2026-05-06 00:28 50.35993 8.44278 18700 ft 460 kts 18°
2026-05-06 00:28 50.39020 8.45919 19171 ft 461 kts 18°
2026-05-06 00:28 50.42057 8.47565 19588 ft 463 kts 18°
2026-05-06 00:29 50.45104 8.49218 19979 ft 465 kts 18°
2026-05-06 00:29 50.48173 8.50888 20362 ft 467 kts 18°
2026-05-06 00:29 50.51267 8.52483 20738 ft 469 kts 17°
2026-05-06 00:29 50.54398 8.53998 21109 ft 472 kts 16°
2026-05-06 00:30 50.57548 8.55461 21448 ft 474 kts 16°
2026-05-06 00:30 50.60720 8.56919 21728 ft 475 kts 16°
2026-05-06 00:30 50.63889 8.58394 21789 ft 475 kts 17°
2026-05-06 00:30 50.67055 8.59898 21788 ft 475 kts 17°
2026-05-06 00:31 50.70216 8.61422 21788 ft 475 kts 17°
2026-05-06 00:31 50.73374 8.62929 21785 ft 475 kts 15°
2026-05-06 00:31 50.76637 8.63592 21786 ft 474 kts 358°
2026-05-06 00:31 50.79887 8.62808 21786 ft 473 kts 344°
2026-05-06 00:32 50.82973 8.61036 21788 ft 472 kts 334°
2026-05-06 00:32 50.85846 8.58529 21789 ft 471 kts 325°
2026-05-06 00:32 50.88398 8.55307 21788 ft 469 kts 314°
2026-05-06 00:32 50.90589 8.51500 21783 ft 468 kts 310°
2026-05-06 00:33 50.92714 8.47589 21792 ft 468 kts 309°
2026-05-06 00:33 50.94811 8.43651 21789 ft 467 kts 308°
2026-05-06 00:33 50.96892 8.39696 21785 ft 467 kts 308°
2026-05-06 00:33 50.98970 8.35738 21780 ft 467 kts 308°
2026-05-06 00:34 51.01208 8.32006 21776 ft 468 kts 317°
2026-05-06 00:34 51.03778 8.28832 21661 ft 470 kts 325°
2026-05-06 00:34 51.06600 8.26227 21392 ft 469 kts 330°
2026-05-06 00:34 51.09458 8.23711 21133 ft 468 kts 330°
2026-05-06 00:35 51.12257 8.21233 20878 ft 466 kts 330°
2026-05-06 00:35 51.15078 8.18727 20626 ft 464 kts 329°
2026-05-06 00:35 51.17889 8.16213 20376 ft 462 kts 329°
2026-05-06 00:35 51.20679 8.13712 20126 ft 460 kts 329°
2026-05-06 00:36 51.23462 8.11211 19880 ft 458 kts 329°
2026-05-06 00:36 51.26229 8.08726 19636 ft 455 kts 329°
2026-05-06 00:36 51.28987 8.06252 19393 ft 454 kts 329°
2026-05-06 00:36 51.31733 8.03784 19149 ft 452 kts 329°
2026-05-06 00:37 51.34469 8.01317 18908 ft 450 kts 329°
2026-05-06 00:37 51.37194 7.98857 18679 ft 449 kts 329°
2026-05-06 00:37 51.39911 7.96405 18445 ft 447 kts 329°
2026-05-06 00:37 51.42596 7.93906 18210 ft 445 kts 325°
2026-05-06 00:38 51.44917 7.90673 17960 ft 441 kts 310°
2026-05-06 00:38 51.46705 7.86708 17693 ft 438 kts 298°
2026-05-06 00:38 51.47965 7.82286 17425 ft 435 kts 288°
2026-05-06 00:38 51.48677 7.77604 17159 ft 432 kts 277°
2026-05-06 00:39 51.48814 7.72816 16716 ft 427 kts 266°
2026-05-06 00:39 51.48349 7.68149 15969 ft 421 kts 253°
2026-05-06 00:39 51.47325 7.63873 15347 ft 413 kts 243°
2026-05-06 00:39 51.45814 7.60002 14729 ft 407 kts 232°
2026-05-06 00:40 51.43914 7.56682 14110 ft 402 kts 223°
2026-05-06 00:40 51.42104 7.53312 13480 ft 398 kts 237°
2026-05-06 00:40 51.40928 7.49331 12805 ft 394 kts 248°
2026-05-06 00:40 51.39856 7.45274 12179 ft 400 kts 242°
2026-05-06 00:41 51.38486 7.41364 11568 ft 404 kts 239°
2026-05-06 00:41 51.37084 7.37467 10963 ft 404 kts 239°
2026-05-06 00:41 51.35684 7.33586 10372 ft 401 kts 239°
2026-05-06 00:41 51.34294 7.29754 9790 ft 394 kts 239°
2026-05-06 00:42 51.32934 7.26014 9188 ft 385 kts 239°
2026-05-06 00:42 51.31600 7.22354 8548 ft 377 kts 239°
2026-05-06 00:42 51.30291 7.18775 7986 ft 368 kts 239°
2026-05-06 00:42 51.29016 7.15299 7521 ft 357 kts 239°
2026-05-06 00:43 51.27784 7.11912 7078 ft 348 kts 239°
2026-05-06 00:43 51.26590 7.08611 6635 ft 339 kts 239°
2026-05-06 00:43 51.25419 7.05387 6199 ft 332 kts 239°
2026-05-06 00:43 51.24270 7.02230 5737 ft 326 kts 239°
2026-05-06 00:44 51.23145 6.99122 5269 ft 320 kts 239°
2026-05-06 00:44 51.22062 6.96105 4824 ft 315 kts 239°
2026-05-06 00:44 51.21048 6.93043 4360 ft 310 kts 245°
2026-05-06 00:44 51.20206 6.89902 3901 ft 306 kts 248°
2026-05-06 00:45 51.19443 6.86770 3529 ft 299 kts 248°
2026-05-06 00:45 51.18735 6.83776 3463 ft 275 kts 248°
2026-05-06 00:45 51.18076 6.80965 3476 ft 269 kts 248°
2026-05-06 00:45 51.17423 6.78177 3480 ft 267 kts 249°
2026-05-06 00:46 51.16772 6.75407 3481 ft 267 kts 249°
2026-05-06 00:46 51.16148 6.72753 3474 ft 242 kts 248°
2026-05-06 00:46 51.15589 6.70377 3476 ft 218 kts 248°
2026-05-06 00:46 51.15080 6.68207 3478 ft 201 kts 248°
2026-05-06 00:47 51.14624 6.66242 3490 ft 178 kts 249°
2026-05-06 00:47 51.14202 6.64491 3467 ft 165 kts 249°
2026-05-06 00:47 51.13792 6.62855 3498 ft 153 kts 248°
2026-05-06 00:47 51.13612 6.61227 3467 ft 150 kts 279°
2026-05-06 00:48 51.14048 6.59783 3331 ft 144 kts 319°
2026-05-06 00:48 51.14910 6.59047 3287 ft 141 kts 345°
2026-05-06 00:48 51.15852 6.58558 3256 ft 143 kts 346°
2026-05-06 00:48 51.16802 6.58056 3218 ft 144 kts 345°
2026-05-06 00:49 51.17757 6.57552 3129 ft 144 kts 346°
2026-05-06 00:49 51.18729 6.57433 2988 ft 138 kts 14°
2026-05-06 00:49 51.19600 6.57992 2853 ft 134 kts 39°
2026-05-06 00:49 51.20227 6.59047 2721 ft 131 kts 54°
2026-05-06 00:50 51.20783 6.60203 2547 ft 131 kts 54°
2026-05-06 00:50 51.21335 6.61353 2377 ft 130 kts 53°
2026-05-06 00:50 51.21879 6.62487 2200 ft 131 kts 53°
2026-05-06 00:50 51.22430 6.63637 2028 ft 130 kts 52°
2026-05-06 00:51 51.22979 6.64781 1844 ft 130 kts 51°
2026-05-06 00:51 51.23525 6.65922 1671 ft 129 kts 50°
2026-05-06 00:51 51.24071 6.67062 1489 ft 129 kts 50°
2026-05-06 00:51 51.24615 6.68197 1328 ft 130 kts 51°
2026-05-06 00:52 51.25161 6.69338 1133 ft 129 kts 51°
2026-05-06 00:52 51.25713 6.70487 931 ft 131 kts 50°
2026-05-06 00:52 51.26262 6.71653 718 ft 134 kts 51°
2026-05-06 00:52 51.26822 6.72850 518 ft 133 kts 49°
2026-05-06 00:53 51.27394 6.74003 329 ft 131 kts 47°
2026-05-06 00:53 51.27947 6.75169 195 ft 131 kts 50°
2026-05-06 00:53 51.28474 6.76277 121 ft 114 kts 49°
2026-05-06 00:53 51.28826 6.76999 126 ft 47 kts 53°
2026-05-06 00:54 51.28992 6.77351 124 ft 36 kts 53°
2026-05-06 00:54 51.29001 6.77580 131 ft 17 kts 131°
2026-05-06 00:54 51.28922 6.77679 132 ft 12 kts 144°
2026-05-06 00:54 51.28855 6.77754 128 ft 11 kts 145°
2026-05-06 00:55 51.28803 6.77800 126 ft 7 kts 168°
2026-05-06 00:55 51.28772 6.77780 123 ft 4 kts 225°
2026-05-06 00:55 51.28755 6.77753 126 ft 3 kts 225°
2026-05-06 00:55 51.28751 6.77746 126 ft 0 kts 225°